Location: Unspecified
(52.1384°N, 8.6525°W)
Time: 11:04:25
(UTC+00:00)

XW-2F - Pass Details

Date: 23 January 2021
Orbit: 500 x 519 km, 97.5° (Epoch: 24 February)

Event Time Altitude Azimuth Distance (km) Brightness Sun altitude
Rises 05:47:57 0° 26° (NNE) 2,660 ? -24.1°
Reaches altitude 10° 05:50:37 10° 46° (NE) 1,767 ? -23.7°
Maximum altitude 05:53:17 18° 91° (E) 1,333 ? -23.3°
Drops below altitude 10° 05:55:56 10° 135° (SE) 1,756 ? -22.9°
Sets 05:58:33 0° 155° (SSE) 2,636 ? -22.5°
